#timestamp,LO_Frequency,Hit,StdDev 
1620151215.3,286047001.4,N
1620151235.2,286047002.2,N
1620151255.9,286047002.0,N
1620151275.7,286047001.4,N
1620151295.6,286047001.5,N
1620151315.4,286047003.1,N
1620151335.2,286047003.9,N
1620151355.1,286047001.8,N
1620151356.0,286047001.8,N
1620151375.8,286047001.4,N
1620151395.6,286047004.0,N
1620151415.5,286047003.2,N
1620151435.3,286047002.9,N
1620151455.1,286047001.8,N
1620151475.9,286047001.7,N
1620151495.7,286047002.2,N
1620151515.5,286047002.2,N
1620151535.4,286047004.3,Y
1620151555.2,286047002.2,P
1620151575.0,286047001.7,P
1620151575.9,286047001.7,P
1620151595.8,286047003.8,Y
1620151615.6,286047002.8,P
1620151635.4,286047002.6,P
1620151655.3,286047000.0,N
1620151675.1,286047000.1,N
1620151676.0,286047000.1,N
1620151695.8,286046999.8,N
1620151715.7,286047001.0,N
1620151735.5,286047001.0,N
1620151755.3,286047000.1,N
1620151775.2,286047002.7,N
1620151795.9,286047000.8,N
1620151815.7,286046998.2,N
1620151835.6,286047000.9,N
1620151855.4,286047000.8,N
1620151875.2,286047000.2,N
1620151895.0,286047001.0,N
1620151896.0,286047001.0,N
1620151915.8,286047000.9,N
1620151935.6,286046998.6,N
1620151955.4,286046998.7,N
1620151975.3,286046997.0,N
1620151995.1,286046996.7,N
1620152015.8,286046997.1,N
1620152035.7,286046997.1,N
1620152055.5,286046998.7,N
1620152075.3,286046999.6,N
1620152095.2,286046997.2,N
1620152115.0,286046996.7,N
1620152115.9,286046996.7,N
1620152135.7,286046997.9,N
1620152155.6,286046995.3,N
1620152175.4,286046999.2,N
1620152195.2,286046996.7,N
1620152215.1,286046995.4,N
1620152216.0,286046995.4,N
1620152235.8,286046996.6,N
1620152255.6,286046996.7,N
1620152275.5,286046996.8,N
1620152295.3,286046996.5,N
1620152315.1,286046996.9,N
1620152335.9,286046999.2,N
1620152355.7,286046997.1,N
1620152375.5,286046995.2,N
1620152395.4,286046994.9,N
1620152415.2,286046997.4,N
1620152435.0,286046996.7,N
1620152435.9,286046996.7,N
1620152455.8,286046995.1,Y
1620152475.6,286047001.1,P
1620152495.4,286046999.9,N
1620152515.3,286047000.6,N
1620152535.1,286047001.0,N
1620152555.8,286047000.6,N
1620152575.7,286047000.4,N
1620152595.5,286046998.1,N
1620152615.3,286046998.4,N
1620152635.2,286046998.8,N
1620152655.9,286046999.3,N
1620152675.7,286046999.4,N
1620152695.6,286046998.2,N
1620152715.4,286046998.1,N
1620152735.2,286046998.1,N
1620152755.1,286047000.8,N
1620152756.0,286047000.8,N
1620152775.8,286047000.6,N
1620152795.6,286046998.6,N
1620152815.5,286046999.4,N
1620152835.3,286046998.9,N
1620152855.1,286046998.8,N
1620152875.9,286047000.7,N
1620152895.7,286046998.5,N
1620152915.5,286046998.4,N
1620152935.4,286046998.5,N
1620152955.2,286047000.7,N
1620152975.0,286046998.2,N
1620152975.9,286046998.2,N
1620152995.8,286046998.8,N
1620153015.6,286046998.9,N
1620153035.4,286046998.9,N
1620153055.2,286046998.3,N
1620153075.1,286046998.2,N
1620153076.0,286046998.2,N
1620153095.8,286046998.5,N
1620153115.7,286046999.3,N
1620153135.5,286046999.4,N
1620153155.3,286046999.0,N
1620153175.1,286046999.4,N
1620153195.9,286046998.4,N
1620153215.7,286046998.6,N
1620153235.5,286046996.6,Y
1620153255.4,286046998.4,P
1620153275.2,286046999.6,N
1620153295.0,286046998.6,N
1620153296.0,286046998.6,Y
1620153315.8,286047001.2,P
1620153335.6,286047000.9,N
1620153355.4,286047000.6,N
1620153375.3,286046999.3,N
1620153395.1,286047000.7,N
1620153415.8,286046998.8,N
1620153435.7,286046998.2,N
1620153455.5,286047000.9,N
1620153475.3,286046999.9,N
1620153495.2,286047000.8,N
1620153515.0,286046998.4,N
1620153515.9,286046998.4,N
1620153535.7,286046998.3,N
1620153555.6,286046998.1,N
1620153575.4,286046999.9,N
1620153595.2,286047000.0,N
1620153615.1,286047000.4,N
1620153616.0,286047000.4,N
1620153635.8,286047001.2,N
1620153655.6,286046998.6,N
1620153675.5,286047001.1,N
1620153695.3,286047000.9,N
1620153715.1,286046998.2,N
1620153735.9,286047000.8,N
1620153755.7,286047001.1,N
1620153775.5,286047000.6,N
1620153795.4,286047001.2,N
1620153815.2,286046998.7,N
1620153835.0,286046999.1,N
1620153835.9,286046999.1,N
1620153855.8,286047000.9,N
1620153875.6,286047000.7,N
1620153895.4,286046998.7,N
1620153915.3,286047000.5,N
1620153935.1,286046998.3,N
1620153936.0,286046998.3,N
1620153955.8,286047000.8,N
1620153975.7,286046999.0,N
1620153995.5,286046998.5,N
1620154015.3,286047000.4,N
1620154035.2,286047002.7,N
1620154055.9,286046998.4,N
1620154075.7,286047001.0,N
1620154095.6,286047002.6,N
1620154115.4,286047004.3,Y
1620154135.2,286047002.0,P
1620154155.1,286047002.1,N
1620154156.0,286047002.1,N
1620154175.8,286047003.5,Y
1620154195.6,286047000.3,P
1620154215.5,286046999.8,N
1620154235.3,286047002.2,N
1620154255.1,286046999.9,N
1620154275.9,286047000.0,N
1620154295.7,286047000.8,N
1620154315.5,286046998.1,N
1620154335.4,286046999.7,N
1620154355.2,286047002.1,N
1620154375.0,286047004.3,Y
1620154375.9,286047004.3,P
1620154395.8,286047002.1,N
1620154415.6,286047001.6,N
1620154435.4,286047001.3,N
1620154455.3,286047001.8,N
1620154475.1,286047004.2,Y
1620154476.0,286047004.2,P
1620154495.8,286047002.8,N
1620154515.7,286047002.4,N
1620154535.5,286047002.4,N
1620154555.3,286047001.4,N
1620154575.2,286047000.1,N
1620154595.9,286047001.5,N
1620154615.7,286046999.7,N
1620154635.6,286047000.4,N
1620154655.4,286047002.4,N
1620154675.2,286047002.8,N
1620154695.1,286047002.3,N
1620154696.0,286047002.3,N
1620154715.8,286047002.2,N
1620154735.6,286047002.4,N
1620154755.5,286047002.3,N
1620154775.3,286047002.6,N
1620154795.1,286047002.0,N
